Regional Weather Roundup
Issued by NWS

Home | Current Version | Previous Version | Text Only | Print | Product List | Glossary On
Versions: 1 2 3 4 5 6 7 8 9 10 11 12 13 14 15 16 17 18 19 20 21 22 23 24 25 26 27 28 29 30 31 32 33 34 35 36 37 38 39 40 41 42 43 44 45 46 47 48 49 50
000
ASUS43 KDTX 241610
RWRMI
MICHIGAN HOURLY REGIONAL WEATHER ROUNDUP
NATIONAL WEATHER SERVICE DETROIT/PONTIAC MI
1200 PM EDT THU APR 24 2014

NOTE: "FAIR" INDICATES FEW OR NO CLOUDS BELOW 12,000 FEET WITH NO
SIGNIFICANT WEATHER AND/OR OBSTRUCTION TO VISIBILITY.

MIZ047>049-052>055-059>063-066>070-074>076-081>083-241700-
SOUTHEAST LOWER MICHIGAN

CITY           SKY/WX    TMP DP  RH WIND       PRES   REMARKS
ADRIAN         CLOUDY    49  20  31 SE12      30.14F
ALMA           CLOUDY    49  17  27 SE9G16    30.13F
ANN ARBOR      CLOUDY    50  21  32 SE9G18    30.15F
BAD AXE        PTSUNNY   50  18  28 SE6       30.17F
DETROIT CITY   MOSUNNY   52  14  22 SE6       30.18F
DETROIT        PTSUNNY   51  15  23 SE9       30.18F
FLINT          MOSUNNY   52  15  23 SE9G21    30.15F
GROSSE ILE     CLOUDY    48  23  37 S10       30.16F
HILLSDALE      CLOUDY    52  18  26 SE15      30.10F
HOWELL         PTSUNNY   50  15  24 E13       30.13F

CITY           SKY/WX    TMP DP  RH WIND       PRES   REMARKS
JACKSON        CLOUDY    48  21  34 SE16      30.11F
LAMBERTVILLE   PTSUNNY   50  21  32 SE8       30.15F
LANSING        CLOUDY    51  18  27 SE20      30.11F
LAPEER         NOT AVBL
MASON          CLOUDY    50  19  29 SE12      30.11F
MONROE         MOSUNNY   50  25  37 SE12G17   30.15F
PONTIAC        PTSUNNY   50  14  23 SE10      30.15F
PORT HOPE        N/A     41  30  65 E5        30.17S
PORT HURON     MOSUNNY   50  21  32 SE7       30.17F
TRI CITIES     PTSUNNY   51  17  26 E9        30.15F
YPSILANTI      SUNNY     54  21  27 SE10      30.16F
$$
MIZ043>046-050>051-056>058-064>065-071>073-077>080-241700-
SOUTHWEST LOWER MICHIGAN

CITY           SKY/WX    TMP DP  RH WIND       PRES   REMARKS
BATTLE CREEK   CLOUDY    51  24  34 SE13      30.09F
BENTON HARBOR  CLOUDY    55  31  39 SE22G30   30.00F
BIG RAPIDS     CLOUDY    49  25  40 E14       30.08F
COLDWATER      PTSUNNY   52  16  24 SE17G23   30.09F
HOLLAND        CLOUDY    55  35  47 SE15G26   30.04F
GRAND RAPIDS   LGT RAIN  52  33  48 SE15      30.08F
KALAMAZOO      PTSUNNY   54  25  32 SE14G24   30.07F
MARSHALL       CLOUDY    49  22  34 SE16      30.09F
MUSKEGON       CLOUDY    50  39  66 E15       30.04F
$$
MIZ016>042-241700-
NORTHERN LOWER MICHIGAN

CITY           SKY/WX    TMP DP  RH WIND       PRES   REMARKS
ALPENA         PTSUNNY   52  22  30 SE9       30.16S
BEAVER ISLAND  CLOUDY    43  23  46 E8        30.13R
BELLAIRE       CLOUDY    53  19  26 S16       30.11S
CADILLAC       CLOUDY    46  20  35 SE14      30.08F
CHARLEVOIX     CLOUDY    46  23  40 E7        30.14S
FRANKFORT      CLOUDY    49  20  32 SE9       30.08S
GAYLORD        CLOUDY    45  15  30 SE14      30.11F
GRAYLING       CLOUDY    50  15  24 SE12      30.12S
HARBOR SPRINGS CLOUDY    46  24  41 E8        30.12S
HOUGHTON LAKE  CLOUDY    50  18  28 S14       30.12S
MANISTEE       CLOUDY    48  21  34 SE8       30.09R
OSCODA         CLOUDY    50  26  38 E6        30.16S
PELLSTON       CLOUDY    47  24  40 SE9       30.14S
TRAVERSE CITY  CLOUDY    50  17  27 SE8G16    30.09S
$$
MIZ007>008-015-241700-
EASTERN UPPER MICHIGAN

CITY           SKY/WX    TMP DP  RH WIND       PRES   REMARKS
KINROSS        PTSUNNY   48  21  34 SE9       30.14F
MACKINAC ISLAN CLOUDY    37  28  69 E8        30.14F
NEWBERRY       CLOUDY    46  25  44 SE6       30.12S
S. S. MARIE    MOSUNNY   47  23  38 SE8       30.14F
$$
MIZ004>006-011>014-085-241700-
CENTRAL UPPER MICHIGAN

CITY           SKY/WX    TMP DP  RH WIND       PRES   REMARKS
MANISTIQUE     CLOUDY    40  25  55 SE8       30.12S
ESCANABA       CLOUDY    41  25  52 E10       30.10S
MENOMINEE      CLOUDY    39  30  70 SE10      30.06F
SAWYER-GWINN   CLOUDY    41  21  45 SE12G17   30.07S
$$
MIZ001>003-009>011-084-241700-
WESTERN UPPER MICHIGAN

CITY           SKY/WX    TMP DP  RH WIND       PRES   REMARKS
IRON MOUNTAIN  CLOUDY    41  21  44 SE9       30.04S
HOUGHTON       CLOUDY    38  22  52 E8        30.03F
COPPER HARBOR    N/A     41  22  46 S8        30.07F
IRONWOOD       CLOUDY    37  28  70 SE15G22   29.91S
$$

ABBREVIATIONS USED IN REMARKS
   TC - TEMPERATURE IN CELSIUS
  WCI - WIND CHILL INDEX
   HX - HEAT INDEX
  VSB - VISIBILITY




USA.gov is the U.S. government's official web portal to all federal, state and local government web resources and services.